+ Show sort options +

VAC BANNED LIST
SteamID Steam Community ID Nickname Last time checked (CET) Checked #
STEAM_0:1:2129 76561197960269987 DAVIIIIIID 2018-07-18 00:50:12 14 more...
STEAM_0:0:2131 76561197960269990 wsdh 2018-03-10 15:43:10 15 more...
STEAM_0:1:2137 76561197960270003 mjkizzlebM 2018-03-10 15:43:10 13 more...
STEAM_0:1:2138 76561197960270005 Captain_ 2018-03-10 15:43:10 3 more...
STEAM_0:1:2143 76561197960270015 CPL Pro 2018-03-10 15:43:10 13 more...
STEAM_0:0:2144 76561197960270016 SlightlySneaky 2018-03-10 15:43:10 15 more...
STEAM_0:0:2152 76561197960270032 alex 2018-03-10 15:43:11 14 more...
STEAM_0:0:2168 76561197960270064 面条阴道会员原版2k8 2018-04-26 11:19:21 33 more...
STEAM_0:0:2179 76561197960270086 awfawfawfaw 2018-05-14 01:20:49 13 more...
STEAM_0:1:2189 76561197960270107 TrenD 2018-03-10 15:43:11 11 more...
STEAM_0:1:2210 76561197960270149 root 2018-03-10 15:43:12 14 more...
STEAM_0:0:2235 76561197960270198 -_- 2018-03-10 15:43:12 14 more...
STEAM_0:1:2246 76561197960270221 clwn 2018-03-10 15:43:12 16 more...
STEAM_0:1:2249 76561197960270227 Ballllllin 2018-03-20 04:30:44 14 more...
STEAM_0:0:2254 76561197960270236 ssj2sal 2018-03-10 15:43:13 10 more...
STEAM_0:0:2256 76561197960270240 pronax 2018-03-10 15:43:13 16 more...
STEAM_0:1:2257 76561197960270243 huNter 2018-07-09 20:45:15 27 more...
STEAM_0:1:2260 76561197960270249 lethal450 2018-03-10 15:43:13 4 more...
STEAM_0:1:2266 76561197960270261 flintknapper 2018-03-10 15:43:13 20 more...
STEAM_0:1:2286 76561197960270301 puppis 2018-03-10 15:43:13 8 more...
STEAM_0:1:2295 76561197960270319 johncoroama 2018-03-10 15:43:13 8 more...
STEAM_0:0:2300 76561197960270328 @EROTIQUE BITCHEZ 2018-03-10 15:43:13 60 more...
STEAM_0:0:2302 76561197960270332 Shadow 2018-03-10 15:43:13 14 more...
STEAM_0:0:2304 76561197960270336 s0urce 2018-03-10 15:43:14 12 more...
STEAM_0:0:2311 76561197960270350 shaungoldstone 2018-03-10 15:43:14 10 more...
STEAM_0:0:2329 76561197960270386 new year ass handler 2018-03-10 15:43:14 12 more...
STEAM_0:1:2330 76561197960270389 y = ƒ(DJ Kinetic) | X3 2018-03-10 15:43:14 7 more...
STEAM_0:1:2332 76561197960270393 ShuD -.- 2018-03-10 15:43:14 82 more...
STEAM_0:0:2335 76561197960270398 TARDBARNNNNNNNNN 2018-03-10 15:43:14 15 more...
STEAM_0:1:2337 76561197960270403 virusconnex 2018-03-10 15:43:14 6 more...